Skip Page Navigation
NASA JPL Caltech
NASA Logo - Jet Propulsion Laboratory + View the NASA Portal
+ Center for Near-Earth Object Studies
JPL Home Earth Solar System Stars & Galaxies Technology
JPL Solar System Dynamics
BODIES ORBITS EPHEMERIDES TOOLS PHYSICAL DATA DISCOVERY FAQ SITE MAP
JPL Small-Body Database Browser
Search: [ help ]  
392007 (2008 YO153)
Classification: Main-belt Asteroid          SPK-ID: 2392007
Ephemeris | Orbit Diagram | Orbital Elements | Mission Design | Physical Parameters | Discovery Circumstances ]

[ show orbit diagram ]
Orbital Elements at Epoch 2459000.5 (2020-May-31.0) TDB
Reference: JPL 12 (heliocentric ecliptic J2000)
 Element Value Uncertainty (1-sigma)   Units 
e .06395875857116151 8.943e-08  
a 2.797454859284959 6.519e-08 au
q 2.61853311932623 2.8283e-07 au
i 6.477765216310084 7.7645e-06 deg
node 130.694633090508 8.1089e-05 deg
peri 224.8585551817064 0.00010557 deg
M 268.461406100591 7.491e-05 deg
tp 2459435.055042888064
(2021-Aug-08.55504289)
0.00036245 TDB
period 1709.003916005237
4.68
5.9738e-05
1.636e-07
d
yr
n .2106490199516295 7.3632e-09 deg/d
Q 2.976376599243688 6.936e-08 au
  Orbit Determination Parameters
   # obs. used (total)      84  
   data-arc span      4189 days (11.47 yr)  
   first obs. used      2007-09-10  
   last obs. used      2019-02-28  
   planetary ephem.      DE431  
   SB-pert. ephem.      SB431-N16  
   condition code      0  
   norm. resid. RMS      .58039  
   source      ORB  
   producer      Otto Matic  
   solution date      2019-Jul-14 11:51:07  

Additional Information
 Earth MOID = 1.61734 au 
 Jupiter MOID = 2.33953 au 
 T_jup = 3.314 
[ show covariance matrix ]

Ephemeris | Orbit Diagram | Orbital Elements | Mission Design | Physical Parameters | Discovery Circumstances ]

Physical Parameter Table
Parameter Symbol Value Units Sigma Reference Notes
absolute magnitude H 16.6   n/a MPO472026  

392007 (2008 YO153)          Discovered 2008-Dec-21 by Spacewatch at Kitt Peak
Reference: Last Updated: 2014-04-17
Ephemeris | Orbit Diagram | Orbital Elements | Mission Design | Physical Parameters | Discovery Circumstances ]
ABOUT SSD CREDITS/AWARDS PRIVACY/COPYRIGHT GLOSSARY LINKS
FirstGov 2020-Jul-05 14:42 UT
(server date/time)  
NASA Home Page
Site Manager:   Ryan S. Park
Webmaster  Alan B. Chamberlin